sat.trackr.live / text

‹ back to catalog

STARLINK-33770

NORAD 63906 · 2025-095S

PAYLOAD ACTIVE UNKNOWN

§ Identity

Operator
Country
US
Launch date
2025-05-10
Launch site
AFETR
Launch vehicle
Mass (kg)
RCS (m²)

Purposes: comms

External: N2YO · Heavens-Above · Gunter

§ Orbital elements

Epoch: 2026-09-20T10:17:40.111872Z

Period
94.27 min
Inclination
43.0036°
Eccentricity
0.0001580
Mean motion
15.27574644 rev/d
Perigee alt
482.0 km
Apogee alt
484.1 km
Semi-major
6,861.2 km
B*
3.9906e-4
RAAN
156.1746°
Arg perigee
283.4078°
Mean anomaly
76.6597°
Rev number
7,756

§ Raw data

STARLINK-337701 63906U 25095S   26263.42893648  .00010733  00000+0  39906-3 0  99912 63906  43.0036 156.1746 0001580 283.4078  76.6597 15.27574644 77568

JSON: /api/v1/satellites/63906 · /tle

For live sub-satellite position, see the globe view (requires WebGL).

§ Visibility from observer

Set your observer location to see the next 7 days of passes ≥ 10°. The values pass through the URL so the page stays shareable.

No JS? Fill the form by hand. The geolocation button needs JavaScript.